www.pogodaiklimat.ru

Погода и климат >> Архив погоды >> Нидерландские Антилы >> Кюрасао аэропорт


ПОГОДА в Кюрасао аэропорту

  • Прогноз погоды в Кюрасао аэропорту
  • Монитор погоды в Кюрасао аэропорту

АРХИВ ПОГОДЫ в Кюрасао аэропорту

Время (UTC), дата Ветер
(напр.,м/с)
 
Видим.   Явления Облачность Т
(С)
Тd
(С)
f
(%)
Тe
(С)
Тes
(С)
Комфортность P
(гПа)
Po
(гПа)
Тmin
(С)
Tmax
(С)
R
(мм)
R24
(мм)
S
(см)
15 16.07 В 10 25 км 6/4 630 м
[Cu med, cong Ac trans Ci sp]
+29.7 +23.7 70 +41 +41 опасность
перегрева
1014.8 1013.8
18 16.07 В 8 25 км 8/3 630 м
[Cu med, cong Ac trans Ci fib]
+30.9 +23.2 64 +41 +43 опасность
перегрева
1014.0 1013.0
21 16.07 В 7 25 км 6/3 630 м
[Cu med, cong Ci fib]
+29.2 +23.9 73 +40 +41 очень
душно
1012.8 1011.8
00 17.07 В 6 22 км 6/1 540 м
[Cu hum Ci fib]
+27.5 +23.9 81 +38 +38 очень
душно
1014.3 1013.2 +25.6 +31.5
03 17.07 В 7 18 км мгла 6/4 540 м
[Cu med, cong Ac trans Ci fib]
+27.4 +23.4 79 +37 +37 очень
душно
1015.9 1014.8
06 17.07 ЮВ 6 18 км мгла 3/3 540 м
[Cu med, cong]
+26.9 +22.3 76 +35 +35 очень
душно
1014.8 1013.7
09 17.07 ЮВ 5 18 км мгла 3/3 540 м
[Cu med, cong]
+26.4 +21.7 75 +34 +34 очень
душно
1014.5 1013.4
12 17.07 В 6 25 км 3/3 540 м
[Cu hum Ci fib]
+28.3 +22.5 71 +37 +38 очень
душно
1015.6 1014.5 +26.2 +31.5
15 17.07 В 7 25 км 3/3 600 м
[Cu hum]
+30.4 +22.4 62 +39 +43 очень
душно
1015.4 1014.4
18 17.07 В 9 25 км 3/3 660 м
[Cu med, cong]
+30.6 +22.3 61 +40 +41 очень
душно
1014.4 1013.4
21 17.07 В 7 25 км 4/4 630 м
[Cu med, cong]
+29.8 +22.3 64 +39 +39 очень
душно
1012.8 1011.8
00 18.07 В 6 25 км 3/3 540 м
[Cu med, cong]
+27.5 +23.4 78 +37 +37 очень
душно
1013.6 1012.5 +26.2 +31.8
03 18.07 В 6 25 км 3/3 540 м
[Cu hum]
+27.4 +23.3 78 +37 +37 очень
душно
1015.1 1014.0
06 18.07 В 7 25 км 4/4 500 м
[Cu med, cong]
+27.1 +22.2 75 +35 +35 очень
душно
1014.1 1013.0
09 18.07 ЮВ 6 25 км 4/4 500 м
[Cu med, cong]
+26.8 +22.0 75 +35 +35 очень
душно
1013.4 1012.3
12 18.07 ЮВ 9 20 км в посл. час ливневой дождь 6/6 570 м
[Cu med, cong Ci fib]
+27.3 +23.2 78 +37 +37 очень
душно
1014.7 1013.6 +26.4 +31.8 0.7
15 18.07 В 8 25 км 4/4 630 м
[Cu med, cong]
+29.7 +23.2 68 +40 +42 очень
душно
1014.8 1013.8
18 18.07 В 8 25 км 4/4 750 м
[Cu med, cong]
+30.5 +23.2 65 +41 +43 опасность
перегрева
1013.1 1012.1
21 18.07 В 6 25 км 1/1 700 м
[Cu hum]
+29.4 +23.1 69 +39 +41 очень
душно
1011.6 1010.6
00 19.07 В 8 25 км 1/1 540 м
[Cu hum]
+27.4 +23.5 79 +37 +37 очень
душно
1012.6 1011.5 +26.4 +30.8
03 19.07 В 8 25 км 1/1 540 м
[Cu hum]
+27.5 +24.0 81 +38 +38 очень
душно
1014.2 1013.1
06 19.07 ЮВ 7 25 км 5/5 500 м
[Cu med, cong]
+27.5 +23.2 77 +37 +37 очень
душно
1014.1 1013.0
09 19.07 ЮВ 6 25 км 5/5 500 м
[Cu med, cong]
+27.5 +23.5 79 +37 +37 очень
душно
1013.8 1012.7
12 19.07 ЮВ 7 25 км 6/4 500 м
[Cu med, cong Ci fib]
+28.7 +23.7 74 +39 +40 очень
душно
1014.3 1013.3 +27.3 +30.8
15 19.07 ЮВ 7 25 км 8/6 660 м
[Cu med, cong Ci fib]
+30.6 +23.7 67 +42 +44 опасность
перегрева
1015.1 1014.1
18 19.07 В 8 25 км 6/4 700 м
[Cu med, cong Cs]
+30.8 +23.9 67 +42 +45 опасность
перегрева
1013.5 1012.5
21 19.07 В 6 24 км 3/3 630 м
[Cu med, cong Ci fib]
+29.8 +24.2 72 +42 +43 опасность
перегрева
1011.7 1010.7
00 20.07 В 6 24 км 3/1 540 м
[Cu med, cong Ci fib]
+27.5 +24.1 82 +38 +38 очень
душно
1013.6 1012.5 +27.3 +31.4
03 20.07 В 6 22 км 4/4 500 м
[Cu med, cong Ci fib]
+27.7 +24.1 81 +39 +39 очень
душно
1014.6 1013.5
06 20.07 ЮВ 6 22 км 4/4 500 м
[Cu med, cong Ci fib]
+27.4 +23.3 78 +37 +37 очень
душно
1013.5 1012.4
09 20.07 ЮВ 7 22 км 4/4 500 м
[Cu med, cong Ci fib]
+26.9 +22.8 78 +36 +36 очень
душно
1011.4
12 20.07 ЮВ 7 15 км осадки на расстоянии 4/4 500 м
[Cu med, cong]
+28.4 +23.5 75 +39 +39 очень
душно
1014.1 1013.1 +26.9 +31.4
15 20.07 ЮВ 10 15 км мгла 4/4 720 м
[Cu med, cong]
+31.5 +21.4 55 +39 +40 очень
душно
1015.1 1014.1
18 20.07 В 9 22 км 1/1 800 м
[Cu med, cong]
+30.5 +21.7 59 +39 +41 очень
душно
1013.5 1012.5
21 20.07 В 7 22 км 1/1 800 м
[Cu med, cong Ci fib]
+29.5 +22.3 65 +38 +39 очень
душно
1011.6 1010.6
00 21.07 В 6 21 км 1/1 570 м
[Cu hum]
+27.6 +22.3 73 +36 +36 очень
душно
1012.8 1011.7 +26.9 +32.4
03 21.07 ЮВ 5 21 км 1/1 500 м
[Cu hum]
+27.1 +21.7 72 +35 +35 очень
душно
1014.2 1013.1
06 21.07 ЮВ 6 21 км 3/3 480 м
[Cu med, cong]
+26.8 +22.4 77 +35 +35 очень
душно
1012.8 1011.7
09 21.07 ЮВ 5 21 км 3/3 500 м
[Cu med, cong]
+26.7 +22.1 76 +35 +35 очень
душно
1012.1 1011.0
12 21.07 ЮВ 8 24 км осадки на расстоянии 8/8 480 м
[Cu med, cong]
+28.2 +22.6 72 +37 +37 очень
душно
1013.4 1012.4 +26.7 +32.4
15 21.07 ЮВ 8 21 км {ливн. осадки} 5/5 660 м
[Cu med, cong]
+30.7 +22.1 60 +39 +41 очень
душно
1013.8 1012.8
18 21.07 В 7 21 км {ливн. осадки} 3/3 750 м
[Cu hum]
+30.9 +22.0 59 +40 +44 очень
душно
1013.0 1012.0
21 21.07 В 7 21 км 3/3 750 м
[Cu hum]
+29.6 +22.8 67 +39 +40 очень
душно
1011.1 1010.1
00 22.07 В 6 21 км 3/3 630 м
[Cu hum]
+27.7 +22.8 75 +37 +37 очень
душно
1012.5 1011.4 +26.7 +32.5
03 22.07 В 7 21 км 1/1 500 м
[Cu hum]
+27.3 +23.3 79 +37 +37 очень
душно
1014.0 1012.9
06 22.07 ЮВ 5 21 км 3/3 500 м
[Cu med, cong]
+26.9 +22.6 77 +35 +35 очень
душно
1013.3 1012.2
09 22.07 ЮВ 7 21 км {ливн. осадки} 3/3 500 м
[Cu med, cong]
+26.4 +22.7 80 +35 +35 очень
душно
1012.6 1011.5
12 22.07 В 6 24 км 3/3 540 м
[Cu hum]
+28.1 +23.0 74 +38 +39 очень
душно
1013.6 1012.5 +26.3 +32.5
15 22.07 В 7 24 км 4/4 600 м
[Cu med, cong]
+30.0 +22.9 66 +40 +43 очень
душно
1013.8 1012.8
18 22.07 В 7 24 км 5/5 630 м
[Cu med, cong]
+29.9 +23.5 69 +41 +43 опасность
перегрева
1012.4 1011.4
21 22.07 В 6 24 км 6/3 600 м
[Cu med, cong]
+29.8 +24.1 72 +42 +42 опасность
перегрева
1010.8 1009.8
00 23.07 В 6 24 км 4/4 500 м
[Cu med, cong Ci fib]
+28.0 +24.0 79 +39 +39 очень
душно
1012.5 1011.5 +26.3 +30.7
03 23.07 В 7 24 км 3/3 500 м
[Cu hum]
+27.9 +23.8 78 +38 +38 очень
душно
1015.0 1013.9
06 23.07 В 8 24 км 3/3 500 м
[Cu hum]
+27.5 +23.9 81 +38 +38 очень
душно
1013.0 1011.9
09 23.07 ЮВ 6 24 км 5/5 480 м
[Cu med, cong]
+27.3 +23.7 81 +37 +37 очень
душно
1013.4 1012.3
12 23.07 ЮВ 7 24 км 4/4 500 м
[Cu med, cong Ci fib]
+28.4 +23.8 76 +39 +40 очень
душно
1014.7 1013.6 +26.6 +30.7

 

Местоположение метеостанции Кюрасао аэропорт (Нидерландские Антилы): широта 12.20 долгота -68.96 высота над уровнем моря 9 м.

В архиве по умолчанию представлена погода в Кюрасао аэропорту за последнюю неделю. Архивные данные за месяц целиком и за предыдущие месяцы, начиная с января 2011 года, Вы можете получить, выбрав интересующий диапазон дат из раскрывающегося списка и нажав кнопку "Ввод!".


*Определитесь, кто Вы:
робот инопланетянин человек

Внимание! Время в таблицах - всемирное. Для получения местного времени необходимо прибавить поправку, которая равна -4 ч.

Смотрите также архив погоды в соседних городах и на ближайших метеорологических станциях:

Погода в Коро (Венесуэла) (117 км)
Погода Королевы Беатрикс аэропорту (Аруба) (119 км)
Погода в Баркисимето (Венесуэла) (240 км)
Погода в Валенсии (Венесуэла) (252 км)
Погода в Маракае (Венесуэла) (260 км)
Погода в Каракасе (Венесуэла) (280 км)
Погода в Акаригуа (Венесуэла) (296 км)
Погода в Сан-Хуан-де-Лос-Морросе (Венесуэла) (310 км)
Погода в Мене Гранде (Венесуэла) (341 км)
Погода в Маракайбо (Венесуэла) (348 км)

Пояснения к столбцам:

Ветер - указаны скорость ветра в м/с - средняя за 10 мин, порывы в срок и между сроками (в фигурных скобках) и направление, откуда дует ветер: С - северный, СВ - северо-восточный, В - восточный, ЮВ - юго-восточный, Ю - южный, ЮЗ - юго-западный, З - западный, СЗ - северо-западный.
Видимость - горизонтальная дальность видимости в метрах или километрах. При видимости от 1 до 10 км при отсутствии осадков обычно наблюдается дымка, при ухудшении видимости до 1 км и менее - туман. В сухую погоду видимость может ухудшаться дымом, пылью или мглою.
Явления - указаны атмосферные явления, наблюдавшиеся в срок или в последний час перед сроком; фигурными скобками обозначены явления, наблюдавшиеся между сроками (за 1-3 часа до срока); квадратными скобками обозначены град или гололедные отложения с указанием их диаметра в мм.
Облачность - указаны через наклонную черту общая и нижняя облачность в баллах и высота нижней границы облаков в метрах; квадратными скобками обозначены формы облаков: Ci - перистые, Cs - перисто-слоистые, Cc - перисто-кучевые, Ac - высококучевые, As - высокослоистые, Sc - слоисто-кучевые, Ns - слоисто-дождевые, Cu - кучевые, Cb - кучево-дождевые. Подробнее классификацию облаков см. в Атласе облаков (PDF).
T - Температура воздуха - температура, измеренная на высоте 2 м над землей.
Td - Температура точки росы - температура, при понижении до которой содержащийся в воздухе водяной пар достигнет насыщения.
f - Относительная влажность воздуха - влажноcть воздуха, измеренная на высоте 2 м над землей.
Te - Эффективная температура - температура, которую ощущает одетый по сезону человек в тени. Характеристика душности погоды. При расчете учитывается влияние влажности воздуха и скорости ветра на теплоощущения человека.
Tes - Эффективная температура на солнце - температура, которую ощущает человек, с поправкой на солнечный нагрев. Характеристика знойности погоды. Зависит от высоты солнца над горизонтом, облачности и скорости ветра. Ночью, в пасмурную погоду, а также при ветре 12 м/с и более поправка равна нулю.
P - Атмосферное давление - приведенное к уровню моря атмосферное давление.
Po - Атмосферное давление - измеренное на уровне метеостанции атмосферное давление.
Tmin - Минимальная температура - минимум температуры воздуха на высоте 2 м над землей.
Tmax - Максимальная температура - максимум температуры воздуха на высоте 2 м над землей.
R - Количество осадков - Количество выпавших осадков за период времени, мм. При наведении курсора мыши на число - период времени, за который выпало указанное количество осадков.
R24 - Количество осадков - Количество выпавших осадков за 24 часа, мм.
S - Снежный покров - Высота снежного покрова, см. При наведении курсора мыши на число - состояние снежного покрова и степень покрытия местности в баллах.